Location: *
(48.8489°N, 2.3218°E)
Time: 01:50:10
(UTC+00:00)

Iridium 2 - Pass Details

Date: 23 August 2019
Orbit: 507 x 516 km, 85.5° (Epoch: 19 September)

Event Time Altitude Azimuth Distance (km) Brightness Sun altitude
Exits shadow 20:46:20 23° 186° (S) 1,119 5.1 -17.1°
Maximum altitude 20:48:37 86° 273° (W) 516 3.6 -17.4°
Drops below altitude 10° 20:52:25 10° 4° (N) 1,735 6.9 -17.9°
Sets 20:54:32 0° 5° (N) 2,627 7.9 -18.1°
